ONEWEB-0436, 51633

Orbit data source: Space-Track

ONEWEB-0436, 51633 is a payload satellite owned by One Web (NAA) (UK) in LEO that was launched on Thu, 10 Feb 2022 UTC via a SOYUZ-ST-B launch vehicle from the French Guiana (FRGUI). Payload-class satellites include a variety of spacecraft equipped with specific instruments for various scientific and technological missions. These include communications satellites like Starlink; space stations such as the ISS; scientific satellites like the Hubble; Earth observation satellites from companies like Planet Labs, Umbra, and HawkEye 360; GPS; miniature CubeSats for education and research; and military/defense satellites.

Loading next visibility...
Identifier
51633, 2022-012M
Orbit
LEO
Country
Flag of UKUK
Related business
Manufacturer
One Web
Mission
Operational Commercial Communications
Bus & Motor
ARROW, Unknown motor
Mass
148 kg wet, ~140 kg dry
Launch date (UTC)
2022-02-10 (4 years ago)
Launch vehicle
SOYUZ-ST-B
Launch site
French Guiana (FRGUI)
Object type
Payload
Rocket body
Debris
Shape & HBR
Trap Box + 2 Pan, 6.7 m
Radar Cross Section
3.464 m², Large (>1 m²)

Expand to show TLE details & history
Last TLE update: 2 days ago

TLE from 2 days ago
0 ONEWEB-0436
1 51633U 22012M   26171.47746970 -.00000002  00000-0 -37287-4 0  9991
2 51633  87.9140   5.1911 0001668  92.5501 267.5821 13.17649330214116
Epoch: 2026-06-20T11:27Z
TLE epoch observation values (Epoch: 2026-06-20T11:27:33.382Z)
Latitude
-0.00005°
Longitude
-75.38952°
Altitude
1,196.664 km
Speed
7.255 km/s
True Right ascension
00h 20m 45s
True Declination
0° 00' 00"
Sunlit
Object was in daylight at epoch
Visualization orbit readout
Latitude
Unknown
Longitude
Unknown
Altitude
Unknown
Speed
Unknown
Apparent Right ascension
Unknown
Apparent Declination
Unknown
Sunlit
N/A
Visualization observer readout
Local Sidereal Time
21:25:29
Azimuth
Unknown
Elevation
Unknown
Doppler factor
Unknown
Orbital elements
Apogee altitude
1,192.083 km
Perigee altitude
1,189.558 km
Semi-major axis
7,568.958 km
Eccentricity
0.00017
Inclination
87.914°
RAAN
5.1911°
Arg. of periapsis
92.5501°
True anomaly
267.563°
Mean anomaly
267.5821°
Eccentric anomaly
267.57255°
Mean motion
3.29601 °/min
Orbital period
109.22 mins
BSTAR
-0.000037287
Loading maneuver chart data...
Computing Atmospheric mass density...
Loading historical data...
Loading historical data...
Loading historical data...
Loading historical data...
Loading historical data...
Loading historical data...
Loading historical data...

Documentation

Showing up to 5 results
|